Puerto Banus, Marbella

>

This is an optional block (switch it off / on) in the settings - file ($SITE['banners'] = false;)

You can display ads, any other important text or photo’s using text / html or PHP code.

You can place one or more at the top and or bottom and it can all be different for content / size .



Meteosat more information blitzortung!


Radar lluvias  rain snow radar


Visita nuestra red de sitios de meteo:

Documentation for the template used

MeteoibericaRed estaciones Meteorologicas

MeteoclimaticRed estaciones Meteorologicas



Sin Advertencias climatologicas .En este momento tenemos Nivel Verde.    No hay Alarmas

Pagina Historial Weather Underground texto

Diario Resumen January 2, 2017 Unidades:  Métrico    impérial   Tanto
« Anterior Dia
Siguiente Dia »
Diario Semana Mensual Anual Personalizada
  Maxima: Minima: Media:
Temperatura: -17.8 °C -12.4 °C -10.9 °C
Punto de rocío: -17.8 °C -14.1 °C -13 °C
Humedad: Humidity % 68 % 78 %
Velocidad del Viento: 0 km/h 7.7 km/h 24.3 km/h
Ráfagas de viento: 0 km/h - -
Viento:- - SSE
Pression baro: 0 hPa 34510.1 hPa -
Précipitaciones: 0 mm    
Historical Graphs
 
 
Datos de tabla para January 2, 2017
Tiempo Temperatura Punto de rocío Pression baro Viento Velocidad del Viento Ráfagas de viento Humedad Las precipitaciones Rate ( Hora )
-17.8 °C -17.8 °C 0 hPa Calm     Humidity % 0 mm
00:00 -11.5 °C -13.3 °C 34601.5 hPa North 15.6 km/h 15.6 km/h 81 % 0 mm
00:05 -11.6 °C -13.3 °C 34591.4 hPa North 15 km/h 15 km/h 81 % 0 mm
00:10 -11.6 °C -13.3 °C 34591.4 hPa North 17.9 km/h 17.9 km/h 81 % 0 mm
00:15 -11.6 °C -13.4 °C 34591.4 hPa North 17.9 km/h 17.9 km/h 81 % 0 mm
00:20 -11.7 °C -13.4 °C 34591.4 hPa North 20.8 km/h 20.8 km/h 81 % 0 mm
00:25 -11.7 °C -13.4 °C 34591.4 hPa North 20.9 km/h 20.9 km/h 81 % 0 mm
00:30 -11.8 °C -13.4 °C 34591.4 hPa North 20.8 km/h 20.8 km/h 82 % 0 mm
00:35 -11.8 °C -13.4 °C 34591.4 hPa North 18.2 km/h 23.3 km/h 82 % 0 mm
00:40 -11.8 °C -13.4 °C 34591.4 hPa North 20.9 km/h 20.9 km/h 82 % 0 mm
00:45 -11.9 °C -13.5 °C 34591.4 hPa North 23.8 km/h 23.8 km/h 82 % 0 mm
00:50 -11.9 °C -13.5 °C 34591.4 hPa NNW 20.9 km/h 20.9 km/h 82 % 0 mm
00:55 -11.9 °C -13.6 °C 34591.4 hPa North 12.9 km/h 20.8 km/h 82 % 0 mm
01:00 -11.9 °C -13.6 °C 34591.4 hPa North 15 km/h 15 km/h 82 % 0 mm
01:05 -11.9 °C -13.6 °C 34591.4 hPa North 18.2 km/h 23.3 km/h 82 % 0 mm
01:10 -11.9 °C -13.6 °C 34577.8 hPa North 26.9 km/h 26.9 km/h 82 % 0 mm
01:15 -12 °C -13.7 °C 34577.8 hPa North 20.9 km/h 20.9 km/h 82 % 0 mm
01:20 -12.1 °C -13.7 °C 34577.8 hPa North 20.9 km/h 20.9 km/h 82 % 0 mm
01:25 -12.1 °C -13.7 °C 34577.8 hPa North 15.6 km/h 23.3 km/h 82 % 0 mm
01:30 -12.1 °C -13.7 °C 34577.8 hPa North 23.8 km/h 23.8 km/h 82 % 0 mm
01:35 -12.1 °C -13.7 °C 34577.8 hPa North 18.2 km/h 25.9 km/h 82 % 0 mm
01:40 -12.1 °C -13.8 °C 34567.7 hPa North 23.8 km/h 23.8 km/h 81 % 0 mm
01:45 -12.1 °C -13.7 °C 34567.7 hPa North 18.2 km/h 25.9 km/h 82 % 0 mm
01:50 -12.1 °C -13.7 °C 34567.7 hPa North 23.8 km/h 23.8 km/h 82 % 0 mm
01:55 -12.1 °C -13.8 °C 34567.7 hPa North 23.8 km/h 23.8 km/h 82 % 0 mm
02:00 -12.2 °C -13.8 °C 34554.1 hPa NNW 26.9 km/h 26.9 km/h 82 % 0 mm
02:05 -12.2 °C -13.8 °C 34567.7 hPa North 18.2 km/h 25.9 km/h 82 % 0 mm
02:10 -12.2 °C -13.8 °C 34554.1 hPa North 23.8 km/h 23.8 km/h 82 % 0 mm
02:15 -12.2 °C -13.8 °C 34554.1 hPa North 15.6 km/h 25.9 km/h 82 % 0 mm
02:20 -12.2 °C -13.9 °C 34554.1 hPa North 23.8 km/h 23.8 km/h 81 % 0 mm
02:25 -12.2 °C -13.9 °C 34554.1 hPa North 26.9 km/h 26.9 km/h 81 % 0 mm
02:30 -12.2 °C -13.9 °C 34554.1 hPa North 23.8 km/h 23.8 km/h 81 % 0 mm
02:35 -12.2 °C -13.9 °C 34554.1 hPa North 20.8 km/h 25.9 km/h 81 % 0 mm
02:40 -12.2 °C -13.9 °C 34554.1 hPa North 23.8 km/h 23.8 km/h 81 % 0 mm
02:45 -12.2 °C -13.9 °C 34554.1 hPa North 26.9 km/h 26.9 km/h 81 % 0 mm
02:50 -12.3 °C -14 °C 34554.1 hPa North 23.8 km/h 23.8 km/h 81 % 0 mm
02:55 -12.3 °C -14 °C 34554.1 hPa NNE 26.9 km/h 26.9 km/h 81 % 0 mm
03:00 -12.3 °C -14 °C 34554.1 hPa North 20.8 km/h 25.9 km/h 81 % 0 mm
03:05 -12.3 °C -14.1 °C 34554.1 hPa North 26.9 km/h 26.9 km/h 81 % 0 mm
03:10 -12.3 °C -14.1 °C 34554.1 hPa North 23.8 km/h 23.8 km/h 81 % 0 mm
03:15 -12.3 °C -14.1 °C 34554.1 hPa North 18.2 km/h 31.1 km/h 81 % 0 mm
03:20 -12.3 °C -14.1 °C 34554.1 hPa North 20.9 km/h 20.9 km/h 81 % 0 mm
03:25 -12.3 °C -14.1 °C 34554.1 hPa North 20.8 km/h 25.9 km/h 81 % 0 mm
03:30 -12.3 °C -14.1 °C 34554.1 hPa North 18.2 km/h 25.9 km/h 81 % 0 mm
03:35 -12.4 °C -14.1 °C 34554.1 hPa North 20.9 km/h 20.9 km/h 81 % 0 mm
03:40 -12.4 °C -14.1 °C 34554.1 hPa North 26.9 km/h 26.9 km/h 81 % 0 mm
03:45 -12.4 °C -14.1 °C 34554.1 hPa North 20.9 km/h 20.9 km/h 81 % 0 mm
03:50 -12.4 °C -14.1 °C 34544 hPa North 29.8 km/h 29.8 km/h 81 % 0 mm
03:55 -12.4 °C -14.1 °C 34544 hPa North 23.3 km/h 31.1 km/h 81 % 0 mm
04:00 -12.4 °C -14.1 °C 34544 hPa North 29.8 km/h 29.8 km/h 81 % 0 mm
04:05 -12.4 °C -14.1 °C 34554.1 hPa North 20.8 km/h 31.1 km/h 81 % 0 mm
04:10 -12.4 °C -14.1 °C 34544 hPa North 29.8 km/h 29.8 km/h 81 % 0 mm
04:15 -12.4 °C -14.1 °C 34544 hPa NNW 26.9 km/h 26.9 km/h 81 % 0 mm
04:20 -12.4 °C -14.1 °C 34544 hPa North 31.1 km/h 31.1 km/h 81 % 0 mm
04:25 -12.4 °C -14.1 °C 34544 hPa North 26.9 km/h 26.9 km/h 81 % 0 mm
04:30 -12.4 °C -14.1 °C 34544 hPa NNE 29.8 km/h 29.8 km/h 81 % 0 mm
04:35 -12.4 °C -14.1 °C 34533.8 hPa North 20.8 km/h 31.1 km/h 81 % 0 mm
04:40 -12.4 °C -14.1 °C 34533.8 hPa North 29.8 km/h 29.8 km/h 81 % 0 mm
04:45 -12.3 °C -14.1 °C 34533.8 hPa North 20.8 km/h 31.1 km/h 81 % 0 mm
04:50 -12.3 °C -14.1 °C 34533.8 hPa North 26.9 km/h 26.9 km/h 81 % 0 mm
04:55 -12.3 °C -14.1 °C 34533.8 hPa North 29.8 km/h 29.8 km/h 81 % 0 mm
05:00 -12.3 °C -14 °C 34533.8 hPa North 26.9 km/h 26.9 km/h 81 % 0 mm
05:05 -12.3 °C -14.1 °C 34533.8 hPa North 18.2 km/h 25.9 km/h 80 % 0 mm
05:10 -12.3 °C -14.1 °C 34533.8 hPa North 23.8 km/h 23.8 km/h 80 % 0 mm
05:15 -12.2 °C -14.1 °C 34533.8 hPa North 23.3 km/h 31.1 km/h 80 % 0 mm
05:20 -12.2 °C -14 °C 34533.8 hPa NNW 29.8 km/h 29.8 km/h 80 % 0 mm
05:25 -12.2 °C -14.1 °C 34533.8 hPa North 23.3 km/h 25.9 km/h 79 % 0 mm
05:30 -12.1 °C -14.1 °C 34533.8 hPa North 23.3 km/h 31.1 km/h 79 % 0 mm
05:35 -12.1 °C -14.1 °C 34533.8 hPa North 20.8 km/h 31.1 km/h 79 % 0 mm
05:40 -12.1 °C -14.1 °C 34520.3 hPa North 29.8 km/h 29.8 km/h 79 % 0 mm
05:45 -12.1 °C -14.1 °C 34520.3 hPa North 20.8 km/h 31.1 km/h 79 % 0 mm
05:50 -12.1 °C -14.1 °C 34520.3 hPa North 20.8 km/h 25.9 km/h 79 % 0 mm
05:55 -12.1 °C -14.1 °C 34520.3 hPa North 32.8 km/h 32.8 km/h 79 % 0 mm
06:00 -12.1 °C -14.1 °C 34520.3 hPa North 20.8 km/h 31.1 km/h 79 % 0 mm
06:05 -12.1 °C -14 °C 34520.3 hPa North 20.9 km/h 20.9 km/h 79 % 0 mm
06:10 -12.1 °C -14 °C 34510.1 hPa North 20.8 km/h 25.9 km/h 79 % 0 mm
06:15 -12.1 °C -14 °C 34510.1 hPa North 20.8 km/h 25.9 km/h 79 % 0 mm
06:20 -12.1 °C -14 °C 34510.1 hPa North 20.9 km/h 20.9 km/h 79 % 0 mm
06:25 -12.1 °C -14 °C 34520.3 hPa North 15.6 km/h 23.3 km/h 79 % 0 mm
06:30 -12 °C -13.9 °C 34520.3 hPa NNE 20.9 km/h 20.9 km/h 79 % 0 mm
06:35 -11.9 °C -13.9 °C 34510.1 hPa NNE 20.9 km/h 20.9 km/h 79 % 0 mm
06:40 -11.9 °C -13.9 °C 34520.3 hPa North 18.2 km/h 25.9 km/h 78 % 0 mm
06:45 -11.9 °C -13.9 °C 34520.3 hPa North 23.8 km/h 23.8 km/h 78 % 0 mm
06:50 -11.8 °C -13.9 °C 34520.3 hPa NNE 23.8 km/h 23.8 km/h 78 % 0 mm
06:55 -11.8 °C -13.9 °C 34520.3 hPa North 20.9 km/h 20.9 km/h 78 % 0 mm
07:00 -11.8 °C -13.9 °C 34520.3 hPa North 23.8 km/h 23.8 km/h 78 % 0 mm
07:05 -11.8 °C -13.9 °C 34520.3 hPa North 18.2 km/h 31.1 km/h 78 % 0 mm
07:10 -11.8 °C -13.9 °C 34520.3 hPa North 15.6 km/h 23.3 km/h 78 % 0 mm
07:15 -11.8 °C -13.8 °C 34520.3 hPa NNE 20.9 km/h 20.9 km/h 78 % 0 mm
07:20 -11.8 °C -13.8 °C 34520.3 hPa NNE 23.8 km/h 23.8 km/h 78 % 0 mm
07:25 -11.8 °C -13.8 °C 34520.3 hPa North 15.6 km/h 23.3 km/h 78 % 0 mm
07:30 -11.8 °C -13.8 °C 34520.3 hPa North 15.6 km/h 15.6 km/h 78 % 0 mm
07:35 -11.8 °C -13.8 °C 34520.3 hPa North 18.2 km/h 23.3 km/h 78 % 0 mm
07:40 -11.8 °C -13.8 °C 34520.3 hPa North 15.6 km/h 20.8 km/h 78 % 0 mm
07:45 -11.8 °C -13.8 °C 34533.8 hPa North 15.6 km/h 20.8 km/h 78 % 0 mm
07:50 -11.7 °C -13.8 °C 34533.8 hPa North 29.8 km/h 29.8 km/h 78 % 0 mm
07:55 -11.7 °C -13.8 °C 34533.8 hPa NNE 23.8 km/h 23.8 km/h 78 % 0 mm
08:00 -11.7 °C -13.7 °C 34533.8 hPa North 17.9 km/h 17.9 km/h 78 % 0 mm
08:05 -11.7 °C -13.7 °C 34544 hPa North 20.9 km/h 20.9 km/h 78 % 0 mm
08:10 -11.7 °C -13.7 °C 34533.8 hPa North 23.8 km/h 23.8 km/h 78 % 0 mm
08:15 -11.7 °C -13.7 °C 34520.3 hPa NNE 18.2 km/h 25.9 km/h 78 % 0 mm
08:20 -11.7 °C -13.8 °C 34533.8 hPa North 20.9 km/h 20.9 km/h 78 % 0 mm
08:25 -11.7 °C -13.8 °C 34544 hPa North 20.9 km/h 20.9 km/h 78 % 0 mm
08:30 -11.7 °C -13.8 °C 34533.8 hPa North 23.3 km/h 23.3 km/h 78 % 0 mm
08:35 -11.7 °C -13.7 °C 34533.8 hPa North 18.2 km/h 31.1 km/h 78 % 0 mm
08:40 -11.6 °C -13.7 °C 34544 hPa NNE 20.8 km/h 20.8 km/h 78 % 0 mm
08:45 -11.6 °C -13.7 °C 34533.8 hPa North 20.8 km/h 31.1 km/h 78 % 0 mm
08:50 -11.6 °C -13.7 °C 34533.8 hPa North 23.8 km/h 23.8 km/h 78 % 0 mm
08:55 -11.6 °C -13.6 °C 34544 hPa North 15.6 km/h 23.3 km/h 78 % 0 mm
09:00 -11.5 °C -13.6 °C 34544 hPa North 18.2 km/h 23.3 km/h 78 % 0 mm
09:05 -11.4 °C -13.5 °C 34544 hPa North 18.2 km/h 18.2 km/h 78 % 0 mm
09:10 -11.4 °C -13.4 °C 34544 hPa North 23.8 km/h 23.8 km/h 78 % 0 mm
09:15 -11.3 °C -13.5 °C 34544 hPa North 15.6 km/h 23.3 km/h 77 % 0 mm
09:20 -11.3 °C -13.4 °C 34554.1 hPa North 20.9 km/h 20.9 km/h 77 % 0 mm
09:25 -11.3 °C -13.4 °C 34554.1 hPa North 12.9 km/h 20.8 km/h 77 % 0 mm
09:30 -11.3 °C -13.4 °C 34554.1 hPa North 18.2 km/h 20.8 km/h 77 % 0 mm
09:35 -11.3 °C -13.4 °C 34554.1 hPa North 15.6 km/h 20.8 km/h 77 % 0 mm
09:40 -11.2 °C -13.4 °C 34554.1 hPa North 18.2 km/h 18.2 km/h 77 % 0 mm
09:45 -11.2 °C -13.4 °C 34554.1 hPa North 15.6 km/h 23.3 km/h 77 % 0 mm
09:50 -10.9 °C -12.9 °C 34554.1 hPa ENE 25.9 km/h 25.9 km/h 79 % 0 mm
09:55 -10.7 °C -12.8 °C 34567.7 hPa NE 7.7 km/h 31.1 km/h 78 % 0 mm
10:00 -10.6 °C -12.6 °C 34567.7 hPa ENE 20.8 km/h 25.9 km/h 79 % 0 mm
10:05 -10.3 °C -12.4 °C 34567.7 hPa East 26.9 km/h 26.9 km/h 78 % 0 mm
10:10 -10.2 °C -12.3 °C 34567.7 hPa East 23.3 km/h 33.6 km/h 78 % 0 mm
10:15 -10.2 °C -12.4 °C 34567.7 hPa ENE 23.3 km/h 33.6 km/h 76 % 0 mm
10:20 -10.1 °C -12.4 °C 34567.7 hPa East 29.8 km/h 29.8 km/h 76 % 0 mm
10:25 -10.1 °C -12.4 °C 34567.7 hPa East 23.3 km/h 33.6 km/h 76 % 0 mm
10:30 -10.1 °C -12.4 °C 34577.8 hPa East 29.8 km/h 29.8 km/h 76 % 0 mm
10:35 -10.1 °C -12.4 °C 34577.8 hPa East 23.3 km/h 31.1 km/h 75 % 0 mm
10:40 -10.1 °C -12.4 °C 34577.8 hPa East 23.3 km/h 31.1 km/h 75 % 0 mm
10:45 -10 °C -12.4 °C 34577.8 hPa ENE 23.8 km/h 23.8 km/h 75 % 0 mm
10:50 -9.9 °C -12.4 °C 34591.4 hPa East 26.9 km/h 26.9 km/h 75 % 0 mm
10:55 -9.9 °C -12.4 °C 34591.4 hPa ENE 23.8 km/h 23.8 km/h 75 % 0 mm
11:00 -9.9 °C -12.3 °C 34591.4 hPa ESE 23.3 km/h 23.3 km/h 75 % 0 mm
11:05 -9.9 °C -12.4 °C 34591.4 hPa East 23.3 km/h 31.1 km/h 74 % 0 mm
11:10 -9.9 °C -12.4 °C 34591.4 hPa East 23.3 km/h 36.2 km/h 74 % 0 mm
11:15 -9.9 °C -12.3 °C 34591.4 hPa East 23.3 km/h 33.6 km/h 75 % 0 mm
11:20 -9.9 °C -12.3 °C 34591.4 hPa East 33.6 km/h 33.6 km/h 75 % 0 mm
11:25 -9.8 °C -12.2 °C 34591.4 hPa East 32.8 km/h 32.8 km/h 76 % 0 mm
11:30 -9.8 °C -12.3 °C 34591.4 hPa East 35.7 km/h 35.7 km/h 75 % 0 mm
11:35 -9.8 °C -12.4 °C 34591.4 hPa East 33.6 km/h 38.8 km/h 74 % 0 mm
11:40 -9.8 °C -12.4 °C 34591.4 hPa East 31.1 km/h 36.2 km/h 73 % 0 mm
11:45 -9.8 °C -12.3 °C 34591.4 hPa East 32.8 km/h 32.8 km/h 74 % 0 mm
11:50 -9.8 °C -12.4 °C 34591.4 hPa East 23.3 km/h 36.2 km/h 73 % 0 mm
11:55 -9.8 °C -12.4 °C 34591.4 hPa ESE 32.8 km/h 32.8 km/h 73 % 0 mm
12:00 -9.7 °C -12.4 °C 34591.4 hPa ESE 25.9 km/h 36.2 km/h 73 % 0 mm
12:05 -9.7 °C -12.5 °C 34591.4 hPa ESE 31.1 km/h 36.2 km/h 72 % 0 mm
12:10 -9.7 °C -12.4 °C 34591.4 hPa ESE 29.8 km/h 29.8 km/h 72 % 0 mm
12:15 -9.6 °C -12.4 °C 34591.4 hPa East 32.8 km/h 32.8 km/h 72 % 0 mm
12:20 -9.6 °C -12.3 °C 34591.4 hPa East 32.8 km/h 32.8 km/h 73 % 0 mm
12:25 -9.7 °C -12.6 °C 34591.4 hPa East 23.3 km/h 38.8 km/h 71 % 0 mm
12:30 -9.6 °C -12.6 °C 34577.8 hPa East 23.8 km/h 23.8 km/h 70 % 0 mm
12:35 -9.6 °C -12.6 °C 34577.8 hPa East 23.8 km/h 23.8 km/h 70 % 0 mm
12:40 -9.6 °C -12.7 °C 34577.8 hPa ESE 29.8 km/h 29.8 km/h 69 % 0 mm
12:45 -9.5 °C -12.6 °C 34577.8 hPa East 20.8 km/h 23.3 km/h 70 % 0 mm
12:50 -9.5 °C -12.7 °C 34577.8 hPa ESE 20.9 km/h 20.9 km/h 69 % 0 mm
12:55 -9.5 °C -12.6 °C 34577.8 hPa East 15.6 km/h 23.3 km/h 69 % 0 mm
13:00 -9.5 °C -12.7 °C 34577.8 hPa ESE 20.8 km/h 20.8 km/h 68 % 0 mm
13:05 -9.4 °C -12.7 °C 34577.8 hPa ESE 18.2 km/h 33.6 km/h 68 % 0 mm
13:10 -9.4 °C -12.6 °C 34567.7 hPa ESE 28.5 km/h 28.5 km/h 69 % 0 mm
13:20 -9.5 °C -12.4 °C 34567.7 hPa SE 31.1 km/h 31.1 km/h 71 % 0 mm
13:25 -9.6 °C -12.4 °C 34567.7 hPa SE 31.1 km/h 36.2 km/h 71 % 0 mm
13:30 -9.6 °C -12.3 °C 34567.7 hPa ESE 35.7 km/h 35.7 km/h 72 % 0 mm
13:35 -9.6 °C -12.4 °C 34567.7 hPa SE 25.9 km/h 33.6 km/h 72 % 0 mm
13:40 -9.6 °C -12.2 °C 34567.7 hPa SE 31.1 km/h 31.1 km/h 73 % 0 mm
13:45 -9.6 °C -12.4 °C 34554.1 hPa SE 32.8 km/h 32.8 km/h 72 % 0 mm
13:50 -9.6 °C -12.3 °C 34554.1 hPa SE 32.8 km/h 32.8 km/h 73 % 0 mm
13:55 -9.6 °C -12.1 °C 34554.1 hPa SE 31.1 km/h 36.2 km/h 74 % 0 mm
14:00 -9.6 °C -12.2 °C 34554.1 hPa SE 31.1 km/h 36.2 km/h 74 % 0 mm
14:05 -9.6 °C -12.1 °C 34554.1 hPa SE 31.1 km/h 36.2 km/h 75 % 0 mm
14:10 -9.6 °C -12.1 °C 34554.1 hPa ESE 33.6 km/h 33.6 km/h 75 % 0 mm
14:15 -9.7 °C -12.2 °C 34554.1 hPa ESE 38.8 km/h 38.8 km/h 74 % 0 mm
14:20 -9.7 °C -12.2 °C 34554.1 hPa SE 29.8 km/h 29.8 km/h 74 % 0 mm
14:25 -9.6 °C -12.2 °C 34554.1 hPa SE 32.8 km/h 32.8 km/h 74 % 0 mm
14:30 -9.6 °C -12.3 °C 34554.1 hPa SE 32.8 km/h 32.8 km/h 73 % 0 mm
14:35 -9.6 °C -12.3 °C 34554.1 hPa SE 25.9 km/h 31.1 km/h 73 % 0 mm
14:40 -9.6 °C -12.3 °C 34544 hPa SE 29.8 km/h 29.8 km/h 73 % 0 mm
14:45 -9.6 °C -12.4 °C 34544 hPa SE 23.3 km/h 31.1 km/h 72 % 0 mm
14:50 -9.6 °C -12.2 °C 34544 hPa SE 29.8 km/h 29.8 km/h 74 % 0 mm
14:55 -9.6 °C -12.2 °C 34544 hPa SE 29.8 km/h 29.8 km/h 74 % 0 mm
15:00 -9.6 °C -12.1 °C 34544 hPa SE 23.3 km/h 31.1 km/h 74 % 0 mm
15:05 -9.6 °C -12.1 °C 34544 hPa SE 23.3 km/h 31.1 km/h 75 % 0 mm
15:10 -9.6 °C -12.1 °C 34544 hPa SE 29.8 km/h 29.8 km/h 75 % 0 mm
15:15 -9.6 °C -12.1 °C 34544 hPa SE 23.3 km/h 33.6 km/h 75 % 0 mm
15:20 -9.6 °C -12.2 °C 34544 hPa SE 29.8 km/h 29.8 km/h 74 % 0 mm
15:25 -9.6 °C -12.2 °C 34544 hPa ESE 35.7 km/h 35.7 km/h 74 % 0 mm
15:30 -9.6 °C -12.1 °C 34544 hPa ESE 25.9 km/h 33.6 km/h 75 % 0 mm
15:35 -9.6 °C -12 °C 34544 hPa ESE 29.8 km/h 29.8 km/h 75 % 0 mm
15:40 -9.6 °C -12 °C 34544 hPa SE 32.8 km/h 32.8 km/h 75 % 0 mm
15:45 -9.6 °C -11.9 °C 34544 hPa SE 31.1 km/h 36.2 km/h 76 % 0 mm
15:50 -9.6 °C -11.8 °C 34544 hPa SE 29.8 km/h 29.8 km/h 77 % 0 mm
15:55 -9.6 °C -11.9 °C 34544 hPa SE 29.8 km/h 29.8 km/h 76 % 0 mm
16:00 -9.6 °C -11.9 °C 34544 hPa SE 31.1 km/h 36.2 km/h 76 % 0 mm
16:05 -9.6 °C -11.8 °C 34544 hPa SE 29.8 km/h 29.8 km/h 77 % 0 mm
16:10 -9.6 °C -11.9 °C 34544 hPa SE 31.1 km/h 31.1 km/h 76 % 0 mm
16:15 -9.6 °C -11.8 °C 34544 hPa SE 31.1 km/h 33.6 km/h 77 % 0 mm
16:20 -9.6 °C -11.8 °C 34544 hPa SE 29.8 km/h 29.8 km/h 77 % 0 mm
16:25 -9.6 °C -11.8 °C 34544 hPa SE 29.8 km/h 29.8 km/h 77 % 0 mm
16:30 -9.6 °C -11.8 °C 34544 hPa ESE 32.8 km/h 32.8 km/h 77 % 0 mm
16:35 -9.6 °C -11.7 °C 34544 hPa ESE 32.8 km/h 32.8 km/h 78 % 0 mm
16:40 -9.6 °C -11.8 °C 34544 hPa SE 35.7 km/h 35.7 km/h 77 % 0 mm
16:45 -9.6 °C -11.8 °C 34544 hPa SE 32.8 km/h 32.8 km/h 77 % 0 mm
16:50 -9.6 °C -11.8 °C 34544 hPa ESE 32.8 km/h 32.8 km/h 77 % 0 mm
16:55 -9.6 °C -11.8 °C 34554.1 hPa ESE 29.8 km/h 29.8 km/h 77 % 0 mm
17:00 -9.6 °C -11.8 °C 34544 hPa SE 31.1 km/h 31.1 km/h 77 % 0 mm
17:05 -9.6 °C -11.8 °C 34544 hPa SE 32.8 km/h 32.8 km/h 77 % 0 mm
17:10 -9.6 °C -11.8 °C 34554.1 hPa SE 29.8 km/h 29.8 km/h 77 % 0 mm
17:15 -9.6 °C -11.7 °C 34554.1 hPa ESE 29.8 km/h 29.8 km/h 78 % 0 mm
17:20 -9.6 °C -11.7 °C 34554.1 hPa ESE 29.8 km/h 29.8 km/h 78 % 0 mm
17:25 -9.7 °C -11.9 °C 34554.1 hPa ESE 29.8 km/h 29.8 km/h 77 % 0 mm
17:30 -9.6 °C -11.7 °C 34554.1 hPa SE 29.8 km/h 29.8 km/h 78 % 0 mm
17:35 -9.6 °C -11.7 °C 34554.1 hPa ESE 31.1 km/h 31.1 km/h 78 % 0 mm
17:40 -9.7 °C -12 °C 34554.1 hPa SE 29.8 km/h 29.8 km/h 76 % 0 mm
17:45 -9.7 °C -12 °C 34554.1 hPa SE 26.9 km/h 26.9 km/h 76 % 0 mm
17:50 -9.6 °C -11.8 °C 34554.1 hPa ESE 29.8 km/h 29.8 km/h 77 % 0 mm
17:55 -9.6 °C -11.8 °C 34554.1 hPa ESE 29.8 km/h 29.8 km/h 77 % 0 mm
18:00 -9.6 °C -11.9 °C 34554.1 hPa ESE 29.8 km/h 29.8 km/h 76 % 0 mm
18:05 -9.7 °C -12 °C 34554.1 hPa ESE 26.9 km/h 26.9 km/h 76 % 0 mm
18:10 -9.7 °C -12.1 °C 34554.1 hPa East 29.8 km/h 29.8 km/h 75 % 0 mm
18:15 -9.7 °C -12.1 °C 34554.1 hPa East 28.5 km/h 28.5 km/h 75 % 0 mm
18:20 -9.6 °C -11.8 °C 34554.1 hPa East 32.8 km/h 32.8 km/h 77 % 0 mm
18:25 -9.7 °C -11.9 °C 34554.1 hPa ENE 29.8 km/h 29.8 km/h 77 % 0 mm
18:30 -9.8 °C -11.9 °C 34567.7 hPa ENE 29.8 km/h 29.8 km/h 78 % 0 mm
18:35 -9.8 °C -11.9 °C 34567.7 hPa ENE 29.8 km/h 29.8 km/h 78 % 0 mm
18:40 -9.8 °C -11.9 °C 34567.7 hPa ENE 28.5 km/h 28.5 km/h 78 % 0 mm
18:45 -9.9 °C -12 °C 34567.7 hPa ENE 29.8 km/h 29.8 km/h 78 % 0 mm
18:50 -9.9 °C -12.1 °C 34567.7 hPa East 26.9 km/h 26.9 km/h 77 % 0 mm
18:55 -9.9 °C -12.1 °C 34567.7 hPa East 26.9 km/h 26.9 km/h 77 % 0 mm
19:00 -9.9 °C -12.1 °C 34567.7 hPa ENE 23.8 km/h 23.8 km/h 77 % 0 mm
19:05 -9.8 °C -12.1 °C 34577.8 hPa East 29.8 km/h 29.8 km/h 77 % 0 mm
19:10 -9.8 °C -12.1 °C 34577.8 hPa East 26.9 km/h 26.9 km/h 77 % 0 mm
19:15 -9.8 °C -12.1 °C 34577.8 hPa ENE 23.8 km/h 23.8 km/h 77 % 0 mm
19:20 -9.8 °C -12.1 °C 34577.8 hPa ENE 26.9 km/h 26.9 km/h 76 % 0 mm
19:25 -9.8 °C -12.1 °C 34577.8 hPa East 23.8 km/h 23.8 km/h 77 % 0 mm
19:30 -9.8 °C -12.2 °C 34577.8 hPa ENE 23.8 km/h 23.8 km/h 76 % 0 mm
19:35 -9.8 °C -12.1 °C 34577.8 hPa ENE 26.9 km/h 26.9 km/h 77 % 0 mm
19:40 -9.9 °C -12.1 °C 34577.8 hPa ENE 26.9 km/h 26.9 km/h 77 % 0 mm
19:45 -10 °C -12.2 °C 34591.4 hPa ENE 20.9 km/h 20.9 km/h 77 % 0 mm
19:50 -10.1 °C -12.2 °C 34591.4 hPa ENE 17.9 km/h 17.9 km/h 78 % 0 mm
19:55 -10.1 °C -12.2 °C 34591.4 hPa ENE 20.9 km/h 20.9 km/h 78 % 0 mm
20:00 -10.1 °C -12.2 °C 34591.4 hPa ENE 20.9 km/h 20.9 km/h 78 % 0 mm
20:05 -10.1 °C -12.2 °C 34591.4 hPa ENE 12.9 km/h 12.9 km/h 78 % 0 mm
20:10 -10.2 °C -12.3 °C 34601.5 hPa NE 11.9 km/h 11.9 km/h 78 % 0 mm
20:16 -10.4 °C -12.6 °C 34601.5 hPa North 15 km/h 15 km/h 77 % 0 mm
20:20 -10.6 °C -12.7 °C 34601.5 hPa North 17.9 km/h 17.9 km/h 78 % 0 mm
20:26 -10.8 °C -12.7 °C 34601.5 hPa NNE 17.9 km/h 17.9 km/h 79 % 0 mm
20:31 -10.9 °C -12.7 °C 34601.5 hPa North 15 km/h 15 km/h 80 % 0 mm
20:36 -10.9 °C -12.8 °C 34601.5 hPa North 23.8 km/h 23.8 km/h 80 % 0 mm
20:41 -11 °C -12.8 °C 34611.7 hPa North 17.9 km/h 17.9 km/h 81 % 0 mm
20:46 -11.1 °C -12.8 °C 34611.7 hPa North 20.9 km/h 20.9 km/h 81 % 0 mm
20:51 -11.1 °C -12.9 °C 34611.7 hPa North 15 km/h 15 km/h 81 % 0 mm
20:56 -11.2 °C -12.8 °C 34611.7 hPa North 20.9 km/h 20.9 km/h 82 % 0 mm
21:01 -11.2 °C -12.9 °C 34611.7 hPa North 17.9 km/h 17.9 km/h 82 % 0 mm
21:06 -11.3 °C -12.9 °C 34611.7 hPa NNW 20.9 km/h 20.9 km/h 82 % 0 mm
21:11 -11.3 °C -12.9 °C 34611.7 hPa NNE 20.8 km/h 20.8 km/h 82 % 0 mm
21:16 -11.3 °C -13 °C 34611.7 hPa NNE 20.9 km/h 20.9 km/h 82 % 0 mm
21:21 -11.4 °C -12.9 °C 34625.2 hPa North 23.8 km/h 23.8 km/h 83 % 0 mm
21:26 -11.4 °C -12.9 °C 34625.2 hPa North 17.9 km/h 17.9 km/h 83 % 0 mm
21:31 -11.4 °C -13 °C 34625.2 hPa North 17.9 km/h 17.9 km/h 83 % 0 mm
21:36 -11.5 °C -13 °C 34625.2 hPa North 17.9 km/h 17.9 km/h 83 % 0 mm
21:41 -11.5 °C -13.1 °C 34625.2 hPa North 23.8 km/h 23.8 km/h 83 % 0 mm
21:46 -11.6 °C -13.1 °C 34625.2 hPa North 20.9 km/h 20.9 km/h 83 % 0 mm
21:51 -11.6 °C -13.1 °C 34625.2 hPa North 23.8 km/h 23.8 km/h 83 % 0 mm
21:56 -11.6 °C -13.1 °C 34625.2 hPa North 20.9 km/h 20.9 km/h 83 % 0 mm
22:01 -11.6 °C -13.2 °C 34625.2 hPa North 20.9 km/h 20.9 km/h 83 % 0 mm
22:06 -11.6 °C -13.2 °C 34625.2 hPa NNE 20.9 km/h 20.9 km/h 83 % 0 mm
22:11 -11.6 °C -13.2 °C 34625.2 hPa North 18.2 km/h 18.2 km/h 83 % 0 mm
22:16 -11.6 °C -13.2 °C 34625.2 hPa North 26.9 km/h 26.9 km/h 83 % 0 mm
22:21 -11.7 °C -13.2 °C 34625.2 hPa North 20.9 km/h 20.9 km/h 83 % 0 mm
22:26 -11.7 °C -13.2 °C 34625.2 hPa North 23.8 km/h 23.8 km/h 83 % 0 mm
22:31 -11.7 °C -13.2 °C 34625.2 hPa North 23.8 km/h 23.8 km/h 83 % 0 mm
22:36 -11.7 °C -13.2 °C 34635.4 hPa North 20.9 km/h 20.9 km/h 83 % 0 mm
22:41 -11.7 °C -13.3 °C 34635.4 hPa North 20.9 km/h 20.9 km/h 83 % 0 mm
22:46 -11.8 °C -13.3 °C 34635.4 hPa North 26.9 km/h 26.9 km/h 83 % 0 mm
22:51 -11.8 °C -13.3 °C 34635.4 hPa North 23.8 km/h 23.8 km/h 83 % 0 mm
22:56 -11.7 °C -13.3 °C 34635.4 hPa North 23.8 km/h 23.8 km/h 83 % 0 mm
23:01 -11.7 °C -13.2 °C 34645.6 hPa North 29.8 km/h 29.8 km/h 83 % 0 mm
23:06 -11.7 °C -13.3 °C 34645.6 hPa North 23.8 km/h 23.8 km/h 82 % 0 mm
23:11 -11.7 °C -13.3 °C 34645.6 hPa NNW 23.8 km/h 23.8 km/h 82 % 0 mm
23:16 -11.7 °C -13.3 °C 34645.6 hPa North 26.9 km/h 26.9 km/h 82 % 0 mm
23:21 -11.7 °C -13.3 °C 34645.6 hPa North 25.9 km/h 25.9 km/h 82 % 0 mm
23:26 -11.7 °C -13.3 °C 34645.6 hPa North 23.8 km/h 23.8 km/h 82 % 0 mm
23:31 -11.7 °C -13.3 °C 34659.1 hPa NNE 20.9 km/h 20.9 km/h 82 % 0 mm
23:36 -11.7 °C -13.3 °C 34659.1 hPa North 25.9 km/h 25.9 km/h 82 % 0 mm
23:41 -11.7 °C -13.3 °C 34659.1 hPa North 29.8 km/h 29.8 km/h 82 % 0 mm
23:46 -11.6 °C -13.3 °C 34659.1 hPa North 23.8 km/h 23.8 km/h 82 % 0 mm
23:51 -11.6 °C -13.4 °C 34659.1 hPa North 23.3 km/h 23.3 km/h 81 % 0 mm
23:56 -11.6 °C -13.3 °C 34659.1 hPa North 29.8 km/h 29.8 km/h 81 % 0 mm
Puerto Banus, Marbella
Elogios de Weather Underground - 2.25 mb

Guión original por  Jim McMurry - jmcmurry@mwt.net Adaptado para la plantilla por  Wim van der Kuil - Leuven-Template.eu

Usted encontrará nuestra información del tiempo también en:

Weather Underground

Iberian Peninsula Weather Network